#timestamp,LO_Frequency,Hit,StdDev 
1577815215.6,286047002.4,N
1577815235.4,286047000.3,N
1577815255.3,286047000.1,N
1577815275.1,286047000.7,N
1577815276.0,286047000.7,N
1577815295.8,286047000.5,N
1577815315.7,286046999.5,N
1577815335.5,286046996.8,N
1577815355.3,286046996.8,N
1577815375.2,286046996.5,N
1577815395.0,286047001.2,N
1577815395.9,286047001.2,N
1577815415.8,286046999.9,N
1577815435.6,286047000.2,N
1577815455.4,286046999.8,N
1577815475.3,286047000.4,N
1577815495.1,286046999.7,N
1577815515.8,286047000.6,N
1577815535.7,286047000.8,N
1577815555.5,286047000.9,N
1577815575.4,286047000.6,N
1577815595.2,286047002.1,N
1577815615.0,286047002.3,N
1577815615.9,286047002.3,N
1577815635.8,286047002.5,N
1577815655.6,286047003.9,N
1577815675.4,286047002.5,N
1577815695.3,286047001.5,N
1577815715.1,286047002.7,N
1577815735.9,286047001.5,N
1577815755.7,286047001.5,N
1577815775.5,286047002.4,N
1577815795.4,286047002.2,N
1577815815.2,286047002.5,N
1577815835.0,286047002.2,N
1577815835.9,286047002.2,N
1577815855.8,286047002.6,N
1577815875.6,286047001.5,N
1577815895.5,286047001.5,N
1577815915.3,286047001.3,N
1577815935.1,286047003.2,Y
1577815955.9,286047003.1,P
1577815975.7,286047004.0,P
1577815995.6,286047004.3,P
1577816015.4,286047002.3,N
1577816035.2,286047004.2,Y
1577816055.1,286046998.5,P
1577816056.0,286046998.5,N
1577816075.8,286047000.9,N
1577816095.6,286047000.3,N
1577816115.5,286046998.4,N
1577816135.3,286046999.5,N
1577816155.2,286046996.9,N
1577816175.9,286046997.4,N
1577816195.7,286046997.5,N
1577816215.6,286046997.2,N
1577816235.4,286046996.5,N
1577816255.2,286046997.9,N
1577816275.1,286046995.1,N
1577816276.0,286046995.1,N
1577816295.8,286046997.9,N
1577816315.7,286046997.9,N
1577816335.5,286046995.9,N
1577816355.3,286046996.1,N
1577816375.2,286046993.6,Y
1577816395.0,286046997.4,P
1577816395.9,286046997.4,P
1577816415.7,286046996.7,P
1577816435.6,286046998.5,Y
1577816455.4,286047001.7,P
1577816475.3,286047001.4,N
1577816495.1,286047006.0,P
1577816515.8,286047001.3,N
1577816535.7,286047004.3,N
1577816555.5,286047002.0,N
1577816575.3,286047000.9,N
1577816595.2,286047000.3,N
1577816615.0,286047000.1,N
1577816615.9,286047000.1,N
1577816635.8,286047002.8,N
1577816655.6,286047000.5,N
1577816675.4,286047002.4,N
1577816695.3,286047001.6,N
1577816715.1,286047002.6,N
1577816735.8,286047001.7,N
1577816755.7,286046998.8,N
1577816775.5,286046999.3,N
1577816795.4,286046998.9,N
1577816815.2,286046998.5,N
1577816835.0,286047000.1,N
1577816835.9,286047000.1,N
1577816855.8,286047000.8,N
1577816875.6,286046998.3,N
1577816895.4,286046999.3,N
1577816915.3,286046998.7,N
1577816935.1,286046998.6,N
1577816955.9,286046999.9,N
1577816975.7,286047000.1,N
1577816995.5,286046999.8,N
1577817015.4,286047002.1,N
1577817035.2,286047002.1,N
1577817055.0,286047001.9,N
1577817056.0,286047001.9,N
1577817075.8,286047002.7,N
1577817095.6,286047000.0,N
1577817115.5,286047000.5,N
1577817135.3,286046999.9,N
1577817155.1,286047002.6,N
1577817175.9,286047003.6,N
1577817195.7,286047003.2,N
1577817215.6,286047003.3,N
1577817235.4,286047001.5,N
1577817255.2,286047004.2,N
1577817275.1,286047001.3,N
1577817276.0,286047001.3,N
1577817295.8,286047001.6,N
1577817315.6,286047002.4,N
1577817335.5,286047002.4,N
1577817355.3,286046999.8,N
1577817375.2,286047000.3,N
1577817395.9,286047000.6,N
1577817415.7,286047000.6,N
1577817435.6,286047000.5,N
1577817455.4,286047001.1,N
1577817475.2,286046998.8,N
1577817495.1,286046999.1,N
1577817496.0,286046999.1,N
1577817515.8,286047000.8,N
1577817535.7,286046999.9,N
1577817555.5,286047000.0,N
1577817575.3,286047000.9,N
1577817595.2,286046997.0,N
1577817615.9,286046996.9,N
1577817635.7,286046994.9,N
1577817655.6,286046997.5,N
1577817675.4,286046995.1,N
1577817695.3,286046999.6,N
1577817715.1,286046994.9,N
1577817716.0,286046994.9,N
1577817735.8,286046997.5,N
1577817755.7,286046998.7,N
1577817775.5,286046996.7,N
1577817795.3,286046997.4,N
1577817815.2,286046999.5,N
1577817835.0,286046997.8,N
1577817835.9,286046997.8,N
1577817855.8,286046997.4,N
1577817875.6,286046997.7,N
1577817895.4,286046995.5,N
1577817915.3,286046996.1,N
1577817935.1,286046998.8,N
1577817955.9,286046998.8,N
1577817975.7,286046998.7,N
1577817995.5,286046998.4,N
1577818015.4,286046999.5,N
1577818035.2,286046996.7,N
1577818055.0,286046995.3,N
1577818055.9,286046995.3,N
1577818075.8,286046995.0,N
1577818095.6,286046994.9,Y
1577818115.5,286046999.3,P
1577818135.3,286046999.2,N
1577818155.1,286046999.5,N
1577818175.9,286046999.4,N
1577818195.7,286046996.6,Y
1577818215.6,286046999.6,P
1577818235.4,286046997.0,P
1577818255.2,286046998.9,N
1577818275.1,286047000.7,N
1577818276.0,286047000.7,N
1577818295.8,286046999.6,N
1577818315.6,286046998.1,N
1577818335.5,286046999.5,N
1577818355.3,286046999.4,N
1577818375.2,286046996.5,Y
1577818395.9,286046998.5,P
1577818415.7,286046996.5,P
1577818435.6,286046999.2,N
1577818455.4,286046997.2,N
1577818475.3,286046996.5,Y
1577818495.1,286047000.4,P
1577818496.0,286047000.4,N
1577818515.8,286047000.3,N
1577818535.7,286047000.3,N
1577818555.5,286047000.1,N
1577818575.4,286047001.9,N
1577818595.2,286047004.3,Y
1577818615.0,286047003.8,P
1577818615.9,286047003.8,N
1577818635.8,286047003.7,N
1577818655.6,286047001.3,N
1577818675.4,286047001.6,N
1577818695.3,286047001.9,N
1577818715.1,286047003.4,N
1577818735.9,286047005.4,Y
1577818755.7,286047003.1,P
1577818775.5,286047004.4,P
1577818795.4,286047001.5,N
